Theta_e
351 352 352 352 353 352 353 354 354 355 355 356 356 356 355 354 355 354 353 353 353 353 353 352 352 352 351 350 350 350 349 349 348 347 348 348 348 347 348 349 349 349 349 350 351 351 351 350 350 350 350 350 352 352 352 352 352 351 350 349 351 353 353 352 351 351 353 353 352 350 349 347 345 345 348 349 348 347 346 344 345 347 347 347 345
350 351 351 352 353 352 353 354 354 355 356 356 356 356 355 354 354 354 353 353 353 353 353 353 352 351 350 349 350 350 350 350 349 348 348 349 348 348 348 348 350 349 349 350 351 351 351 350 350 350 350 351 352 352 350 351 351 352 354 354 352 352 352 352 350 351 353 352 352 353 350 347 346 347 349 349 349 348 347 346 345 346 348 348 345
347 349 351 351 352 352 353 353 354 355 356 356 356 356 356 355 355 354 351 351 353 354 353 353 352 349 348 347 348 349 349 350 350 349 348 349 348 348 349 350 350 349 348 349 350 351 351 351 350 350 351 352 353 352 350 349 351 353 356 357 355 353 353 352 349 349 351 353 354 353 351 350 349 351 349 346 346 346 347 347 346 346 347 346 343
346 346 349 350 351 352 352 353 354 355 356 356 357 357 356 355 354 352 349 349 351 353 352 352 351 349 348 347 347 348 348 348 349 349 349 350 350 350 350 351 349 349 349 349 350 350 350 350 351 351 352 352 352 352 351 350 351 355 356 356 356 355 353 353 350 349 349 352 355 353 352 352 350 350 350 347 344 344 346 346 345 346 346 342 341
346 345 347 350 351 352 353 354 354 355 355 356 356 356 356 355 353 350 349 348 349 351 351 352 352 350 348 347 348 348 348 348 350 351 351 351 351 351 351 350 350 350 350 350 350 350 349 350 351 351 351 352 352 353 353 352 352 355 356 355 356 355 354 354 352 350 349 349 352 354 353 351 349 349 350 349 346 344 345 345 343 344 344 341 340
346 346 347 350 351 352 353 353 354 355 355 356 356 355 356 355 353 351 349 348 348 350 351 351 352 351 348 349 350 351 351 351 351 352 353 353 353 353 351 349 350 350 350 351 350 350 350 350 351 351 350 351 352 353 353 353 354 355 355 357 357 354 353 355 353 351 350 348 349 352 352 351 351 352 352 353 350 346 345 345 344 342 341 339 340
345 346 347 350 350 352 353 353 353 354 355 356 355 355 356 354 353 352 349 348 349 350 351 352 352 351 348 350 352 353 353 352 350 352 352 353 353 353 351 349 350 350 350 350 351 351 351 351 351 351 350 349 351 353 354 355 356 355 355 357 356 352 353 357 354 353 353 352 351 352 352 351 351 352 353 353 353 351 348 346 346 344 341 340 341
344 345 346 349 351 351 352 353 353 354 354 355 355 355 356 353 352 352 349 348 349 349 351 351 352 351 349 350 351 352 354 352 350 351 352 352 353 353 352 351 350 350 350 350 351 351 351 351 352 351 350 348 349 353 355 356 356 354 355 356 354 352 354 356 356 356 354 353 353 353 351 349 349 352 352 352 353 352 349 347 348 345 344 342 341
343 344 346 348 350 351 351 352 353 353 354 354 354 354 355 354 352 352 349 348 349 349 350 351 351 351 349 349 350 351 353 352 351 352 353 354 354 353 353 352 351 350 351 350 351 351 351 352 351 350 349 347 348 353 355 354 355 354 354 355 355 354 353 353 356 357 355 354 355 355 354 351 351 352 352 353 352 351 348 347 348 348 347 345 342
344 344 346 348 349 350 351 352 352 353 353 354 354 354 354 354 353 352 350 349 350 349 350 350 350 351 349 349 350 350 351 351 352 353 353 354 355 354 354 353 352 351 351 351 350 351 351 351 350 349 349 349 348 352 353 352 353 354 354 355 355 354 354 353 355 356 354 355 355 355 357 356 355 355 353 353 352 351 349 346 346 348 347 348 346
343 344 346 347 349 350 350 352 352 352 353 353 354 354 354 353 353 352 351 350 350 350 350 350 350 350 349 349 351 351 351 350 352 353 353 353 355 355 355 353 352 353 353 352 351 351 351 351 351 351 350 349 348 350 353 354 355 355 355 355 354 354 354 353 354 355 354 355 355 355 356 355 355 355 354 354 353 351 350 347 346 348 348 349 348
342 344 346 347 349 350 350 351 352 352 353 353 353 353 353 353 353 352 351 350 350 350 349 349 349 350 350 350 351 351 351 351 351 352 351 352 355 356 355 354 353 353 354 353 353 353 352 351 352 352 349 348 348 349 353 354 355 355 355 355 355 354 355 353 354 356 355 355 355 354 355 353 353 354 352 354 354 351 352 351 348 350 350 349 348
342 344 346 347 348 350 349 351 352 352 352 353 353 353 353 353 353 352 351 351 351 350 349 349 349 349 350 351 351 350 351 351 351 352 352 352 354 355 356 356 354 354 355 355 355 355 353 352 351 350 348 347 348 348 349 351 353 354 354 355 356 355 356 356 356 357 356 356 355 354 354 353 353 354 352 352 352 352 353 353 351 351 351 349 350
343 343 344 347 348 349 350 351 352 352 352 352 353 353 354 354 353 352 352 351 351 350 350 349 349 349 349 350 350 351 350 350 351 352 352 352 353 354 356 356 356 356 355 355 356 356 354 353 352 350 349 347 347 347 349 352 354 354 354 355 356 356 356 357 357 357 356 356 355 355 355 354 354 355 353 352 351 352 353 352 354 354 350 349 351
344 343 343 346 348 348 349 350 351 351 351 352 353 353 353 353 353 352 352 352 351 351 350 349 349 349 349 349 349 350 350 349 350 352 352 351 352 353 354 354 355 354 352 352 354 355 354 353 352 351 350 349 348 347 349 352 353 354 354 354 356 356 355 356 357 356 356 356 356 356 355 355 355 355 354 352 351 352 352 352 354 356 352 351 352
343 343 344 346 348 349 349 349 350 351 351 352 353 353 353 353 352 352 352 352 351 351 350 349 349 349 349 349 349 350 349 349 349 350 351 351 352 352 352 352 353 353 351 350 352 354 354 354 354 352 351 351 351 350 351 353 354 355 356 355 357 357 355 355 357 357 357 356 357 357 356 356 356 356 355 354 352 352 353 352 354 355 355 354 353
343 343 345 347 348 348 349 349 349 350 350 351 352 352 352 353 352 352 353 352 351 351 350 350 349 349 349 349 349 349 349 349 349 350 351 351 351 352 352 352 351 352 353 352 352 353 354 354 354 354 352 351 352 353 354 355 354 356 358 357 358 360 356 355 357 358 358 358 357 357 357 357 357 357 356 355 352 351 352 352 353 355 355 355 355
344 343 345 347 347 348 348 348 349 349 349 350 352 352 352 352 352 352 352 352 351 351 350 350 350 349 349 349 348 348 348 349 350 350 350 351 351 351 352 352 352 352 353 353 352 352 353 354 354 355 354 352 352 353 354 354 354 356 357 357 358 359 358 358 357 357 358 359 358 358 358 358 357 357 357 356 354 352 353 354 354 354 353 356 357
348 344 345 347 347 348 349 348 348 350 350 350 351 352 352 352 352 352 353 351 351 351 351 350 349 349 349 348 347 348 348 348 349 351 351 351 352 352 352 353 353 352 352 352 352 352 352 352 353 354 355 355 353 353 354 354 355 355 357 358 358 357 358 360 360 359 359 359 359 359 359 358 358 358 358 358 357 355 356 356 356 354 353 355 357
351 347 346 346 347 347 347 348 349 349 349 349 350 351 352 352 352 352 353 352 352 351 350 349 349 349 349 347 346 346 348 348 348 350 352 353 353 354 353 353 353 352 351 351 352 352 352 352 353 355 356 356 355 355 354 355 355 356 356 358 359 357 357 360 361 360 360 360 360 361 360 360 360 359 359 359 359 358 357 357 357 357 356 355 356
355 351 348 348 349 348 347 348 349 349 349 349 349 350 351 352 352 352 352 352 352 351 350 349 349 349 348 347 346 346 348 348 349 349 352 354 354 354 354 353 352 352 352 352 351 352 352 353 354 354 355 355 355 355 355 355 355 355 355 357 357 356 356 359 360 360 360 360 360 360 361 362 361 360 360 360 359 359 358 358 358 359 358 357 357
355 352 350 352 352 351 349 348 348 349 349 349 349 350 352 352 352 352 352 352 351 351 350 349 349 349 349 349 349 349 347 348 349 350 351 353 353 353 353 352 352 352 352 352 352 352 353 354 355 355 354 354 354 355 355 356 356 355 356 357 358 357 357 358 359 358 359 360 359 359 360 361 361 360 360 360 359 359 358 358 359 359 359 358 358
356 354 354 356 355 354 353 351 350 350 350 349 349 350 351 351 350 351 352 351 350 350 350 349 348 349 349 350 350 350 348 348 349 350 351 352 352 353 353 351 352 353 353 352 353 353 354 354 355 356 356 355 355 355 355 356 356 355 355 356 357 358 358 359 359 359 359 360 359 359 359 359 360 360 361 359 359 359 359 359 359 359 359 359 359
358 357 357 357 355 355 355 354 353 352 351 350 349 349 350 350 349 350 351 350 349 349 350 349 348 349 349 351 351 351 351 350 350 351 351 352 353 353 352 351 353 355 354 353 352 353 354 354 355 355 356 356 356 355 355 355 354 354 354 354 354 355 355 357 359 358 358 359 360 359 358 358 359 359 360 359 359 359 359 359 358 359 359 358 359
358 357 356 355 355 356 356 356 355 354 352 349 347 348 349 348 349 350 350 351 350 350 350 350 350 350 350 350 352 353 354 352 352 352 351 351 353 353 352 351 353 355 356 355 354 354 354 354 355 355 355 355 355 355 355 355 354 353 352 353 354 353 354 354 356 356 356 356 358 358 358 358 358 358 357 357 357 357 357 358 357 358 358 357 358
356 355 355 355 355 355 355 355 355 355 354 351 349 349 351 350 349 350 351 352 352 352 352 352 352 352 352 351 352 354 355 354 354 353 353 353 353 354 353 353 353 354 355 355 355 355 354 354 354 354 354 354 354 354 354 354 354 354 353 353 353 353 353 354 355 356 356 355 355 356 356 356 356 357 357 356 356 355 355 356 356 356 356 357 357
353 353 354 355 354 355 355 353 354 355 354 353 353 353 353 351 350 351 353 355 353 353 354 355 355 355 355 354 354 355 355 355 355 354 354 355 354 354 354 354 354 354 354 355 355 355 353 352 352 352 352 352 352 353 353 352 353 353 353 352 353 354 354 354 354 355 355 355 355 354 354 354 354 353 354 354 355 355 354 355 355 354 354 355 355
350 350 352 354 353 353 354 354 354 353 353 353 353 353 353 352 352 353 354 354 353 353 353 354 355 356 356 356 356 356 355 354 354 353 353 355 355 355 355 354 354 354 354 354 353 354 353 352 352 351 351 352 352 353 353 352 352 352 352 352 352 352 353 354 353 353 353 353 353 353 353 353 351 348 348 350 352 353 354 354 354 352 351 352 354
347 348 350 352 352 353 353 353 353 352 352 352 352 352 352 352 352 352 353 353 353 352 352 352 353 354 356 356 356 355 354 353 353 353 354 354 354 354 354 354 354 354 355 354 354 354 354 354 354 353 352 352 353 353 353 352 352 351 351 352 351 351 352 353 352 352 352 352 351 352 352 351 349 347 347 347 348 349 350 351 351 350 350 352 354
345 345 346 347 349 351 351 351 351 351 351 352 350 350 350 349 349 349 350 350 352 352 351 351 351 352 353 354 354 354 354 355 354 354 354 354 354 354 354 354 354 354 354 355 354 355 354 355 355 355 354 353 353 353 352 351 351 350 351 353 353 351 350 351 351 351 351 351 351 352 351 349 347 347 347 347 347 347 347 348 348 349 350 352 355
343 344 344 345 347 348 348 348 348 348 348 348 347 347 347 347 347 347 348 348 349 350 349 348 349 350 350 351 352 352 352 353 353 353 354 354 354 354 354 354 354 353 354 354 354 354 354 354 354 353 354 353 352 352 351 350 350 349 349 351 353 353 352 352 352 351 352 352 353 353 353 351 350 348 348 348 348 347 348 347 347 347 348 349 353
342 342 343 343 344 343 343 344 344 344 345 344 344 345 344 344 344 345 346 347 347 348 348 347 348 348 349 349 349 350 349 349 349 350 351 352 352 353 353 353 352 352 352 353 352 353 353 353 353 352 352 352 352 350 349 349 349 349 348 349 350 352 354 353 353 353 353 352 353 353 353 353 352 350 348 348 348 348 348 349 348 348 348 348 348
342 342 341 340 340 340 340 340 339 340 340 340 341 340 339 340 340 341 343 343 344 345 344 345 347 348 349 350 349 349 349 349 349 349 349 350 350 351 352 352 352 351 351 352 351 351 351 351 351 352 352 352 352 350 349 349 349 349 348 348 348 349 351 352 353 353 352 352 351 351 351 352 351 350 349 348 349 349 349 349 349 348 349 348 348
339 339 338 338 338 336 335 335 334 335 335 336 336 335 335 337 337 337 338 339 340 341 341 342 344 346 347 348 348 349 349 349 350 349 350 350 350 350 351 351 352 351 351 352 352 351 351 351 351 351 351 352 352 351 350 350 350 349 349 349 348 348 348 349 350 350 351 351 350 350 350 350 350 350 349 349 349 350 350 350 350 350 350 350 350
336 336 336 336 335 334 333 333 332 332 332 332 332 332 333 333 333 333 333 334 335 336 336 337 339 342 344 344 345 346 346 347 347 348 348 347 347 348 349 349 350 350 351 352 352 352 352 352 352 352 352 352 351 350 351 350 350 350 350 350 349 349 348 348 348 349 349 349 349 350 350 350 349 349 350 349 349 350 350 350 350 350 351 351 350
336 336 335 334 333 333 333 332 330 330 330 329 329 330 330 330 329 329 329 330 331 331 332 332 333 335 337 338 340 341 343 344 345 345 346 345 345 345 345 346 347 348 349 350 350 351 351 352 352 353 353 352 350 350 351 351 350 350 350 350 351 350 350 349 349 350 349 350 350 350 350 350 350 350 350 349 348 348 349 350 351 352 352 352 352
335 334 333 332 332 332 332 330 329 329 328 327 328 329 329 329 328 328 328 328 329 330 330 329 329 331 332 333 335 336 337 340 342 343 345 346 346 345 345 345 347 347 348 348 349 349 349 350 353 352 351 348 347 348 349 351 352 352 351 352 352 352 352 351 351 350 350 350 351 350 351 351 351 351 351 350 350 349 348 349 351 352 353 353 352
332 332 331 331 331 331 330 329 329 327 326 326 327 327 328 328 328 328 328 328 329 329 328 327 327 329 331 333 335 336 337 338 339 342 345 346 346 346 346 346 345 343 343 343 344 345 345 346 348 348 347 345 344 345 346 348 350 351 353 354 353 354 353 353 352 352 352 352 351 351 351 351 352 352 351 351 352 350 349 349 350 352 353 353 353
331 330 330 330 329 329 329 329 328 326 326 326 326 326 326 326 327 327 327 327 328 327 326 325 325 326 329 332 335 339 341 341 341 343 344 345 344 344 344 342 339 337 336 336 337 339 340 340 340 339 339 338 339 340 341 343 345 348 350 352 352 352 353 353 353 353 353 353 353 353 353 352 352 352 352 352 352 351 351 350 350 352 352 353 354
329 329 329 329 328 327 327 326 325 324 325 325 324 324 324 324 324 325 325 326 326 326 326 325 324 324 326 328 330 334 338 340 341 342 340 339 338 337 336 336 335 334 334 333 332 333 336 337 336 335 335 335 334 334 335 338 340 343 345 347 348 349 349 350 351 352 353 354 354 354 354 353 353 353 353 353 353 353 352 351 351 352 353 354 354
328 327 327 326 325 324 324 323 322 322 323 322 322 322 322 322 322 323 323 323 324 325 326 326 326 325 324 325 327 329 331 332 333 334 333 331 331 331 331 331 332 333 334 335 333 332 332 332 332 332 334 334 333 332 331 332 334 336 338 340 342 343 344 345 347 348 349 350 351 352 352 352 352 352 352 353 353 353 353 352 352 352 353 354 354
326 325 325 324 323 322 322 321 321 321 321 321 321 321 321 322 322 321 321 321 321 323 324 325 326 326 324 324 325 326 327 328 328 328 328 326 325 326 327 328 329 330 332 333 333 331 329 327 326 326 329 331 331 330 329 329 330 331 332 333 335 336 338 339 341 342 343 344 345 345 345 347 348 349 350 351 352 351 352 352 352 352 353 353 353
325 324 323 323 322 321 321 321 320 320 321 321 320 320 321 321 320 319 318 318 319 320 322 323 324 325 325 325 324 324 326 327 327 326 326 324 323 322 323 324 326 329 330 329 329 329 328 327 325 324 325 327 328 329 328 329 329 330 331 332 333 335 336 337 338 339 338 339 339 340 340 342 343 345 346 347 348 348 349 349 349 350 350 350 350
323 323 322 321 321 320 320 320 319 318 318 319 319 321 321 320 319 317 317 318 318 318 319 320 322 323 324 325 325 325 325 326 326 326 325 324 323 322 322 322 324 328 330 329 327 327 327 326 327 326 325 326 327 327 328 328 329 330 331 332 334 335 336 336 336 335 334 334 335 336 338 340 341 342 343 344 344 345 345 345 346 346 346 346 347
322 321 321 320 320 320 319 319 318 317 316 316 318 320 320 319 318 317 317 319 320 319 319 320 320 321 323 324 325 326 326 325 326 326 327 326 325 325 324 325 327 328 329 329 327 327 326 326 327 328 328 328 327 328 328 329 329 330 330 332 333 334 334 334 333 333 332 332 333 336 338 340 341 342 343 343 343 343 343 344 344 345 345 346 346
321 321 320 319 319 319 319 320 319 318 317 316 317 317 318 318 317 316 318 320 321 321 320 320 320 320 322 324 325 325 326 326 326 327 327 326 326 326 326 327 328 328 329 328 327 326 326 326 327 328 329 329 328 328 328 328 329 330 330 330 330 330 331 331 331 330 330 331 333 334 336 337 338 339 339 339 339 340 341 341 341 341 342 343 345
320 319 318 318 319 320 320 320 319 318 318 317 316 316 316 316 317 317 319 320 320 320 320 320 320 320 321 322 324 324 325 326 327 327 326 325 325 326 327 327 327 327 327 327 326 325 325 325 326 328 328 328 327 326 325 326 327 327 328 327 327 328 328 328 328 328 328 330 332 332 331 332 333 333 333 333 333 333 334 334 335 335 336 337 339
319 317 316 317 320 320 320 320 319 318 317 316 315 315 315 315 316 317 319 319 318 319 320 320 320 321 321 322 322 323 324 326 327 327 326 325 325 325 326 326 326 326 326 325 325 324 324 324 326 327 327 327 327 325 323 323 324 324 325 325 325 325 325 325 325 325 325 327 329 328 327 327 327 327 328 328 327 327 327 327 328 328 329 331 332
319 316 315 317 319 320 321 321 319 318 317 316 316 316 316 316 316 317 319 319 319 319 320 321 321 321 322 322 322 322 323 325 326 326 326 325 324 325 326 325 324 323 323 323 324 324 323 324 325 326 326 326 326 324 321 321 321 322 322 322 322 322 322 322 322 322 323 325 326 326 325 325 324 324 324 324 324 324 324 324 323 322 324 328 328
318 316 316 316 316 317 318 318 317 317 317 317 317 317 317 318 318 318 319 319 320 320 320 321 321 321 321 322 322 323 324 325 325 326 326 324 323 323 324 324 322 321 321 321 321 321 321 323 324 324 324 324 323 321 320 319 319 319 319 319 320 319 319 319 319 319 321 323 324 324 323 322 322 322 322 321 322 322 322 322 322 322 323 324 324
316 316 317 316 316 316 317 316 316 317 317 317 317 317 317 317 317 318 318 319 320 320 320 320 320 320 321 322 322 322 323 324 325 325 325 324 323 322 322 322 321 320 320 320 319 319 319 322 323 323 322 321 320 319 319 318 318 318 318 318 318 318 317 317 316 317 321 322 322 322 322 321 320 320 320 320 320 320 320 320 320 320 321 321 321
Wind_Speed
9 11 12 12 12 12 11 11 12 12 12 13 14 13 12 12 11 10 9 8 7 6 6 5 5 5 5 6 6 6 6 6 7 8 7 7 7 7 7 7 7 7 7 6 6 5 4 5 5 4 4 4 3 2 3 3 4 5 5 5 5 5 5 6 7 7 7 7 6 5 4 3 2 2 3 3 2 1 1 2 2 2 3 4 6
8 10 11 12 12 12 12 11 13 13 13 14 14 14 14 13 12 11 10 10 8 8 7 6 5 5 5 6 6 7 7 6 7 8 7 7 8 7 8 7 7 7 7 7 6 5 4 4 4 5 5 4 3 2 2 2 3 5 5 5 5 5 5 6 7 6 6 7 6 5 5 4 4 4 3 2 2 2 2 1 2 2 2 3 5
8 10 11 12 12 13 13 12 13 13 13 14 14 14 14 14 13 12 12 11 10 9 8 6 6 5 4 4 5 6 8 7 7 7 7 7 8 8 8 7 7 7 7 6 6 5 4 3 4 4 4 3 2 1 1 2 3 4 5 5 4 4 4 5 7 6 6 6 5 3 4 3 4 6 6 5 3 2 2 2 1 2 2 2 4
9 10 11 13 13 14 13 13 13 13 13 14 14 15 15 16 15 14 14 13 11 10 9 8 6 6 5 4 5 6 7 8 7 7 7 7 8 8 8 8 8 7 6 6 5 5 3 3 3 3 3 3 2 1 2 2 3 4 5 6 5 4 4 5 6 7 7 6 4 2 3 2 3 6 7 6 5 3 1 1 1 1 2 2 3
10 10 11 13 14 14 14 13 13 13 14 15 15 16 15 17 17 16 15 14 13 12 11 9 8 7 7 4 5 6 7 7 7 7 8 8 8 8 8 8 8 7 6 6 5 4 3 3 3 3 3 3 2 2 2 2 3 4 4 5 6 6 5 4 5 6 7 6 5 3 2 2 4 6 6 5 7 6 5 3 2 1 1 2 2
10 10 11 13 14 14 14 14 14 14 15 15 15 15 15 17 18 17 16 15 14 14 12 11 10 9 9 6 6 7 6 8 8 8 8 9 8 8 9 8 8 7 6 6 5 4 4 4 3 3 3 3 3 2 2 2 3 3 4 4 6 6 6 5 5 6 6 7 6 3 2 2 3 6 5 3 5 6 6 6 5 3 3 3 3
10 11 12 14 14 14 15 16 16 16 15 15 15 15 15 18 19 18 17 16 16 15 13 12 12 11 10 9 9 9 8 9 10 9 9 9 8 9 9 9 8 8 7 7 6 5 5 5 4 4 4 4 4 2 2 2 2 3 3 4 5 6 7 6 5 6 6 6 5 3 2 1 1 4 4 3 2 4 6 7 7 6 4 4 3
10 11 12 14 16 16 17 18 18 17 15 15 16 16 17 20 20 18 18 18 17 16 14 13 13 12 12 10 10 10 9 10 11 10 10 9 9 9 9 9 9 9 8 7 7 6 5 5 5 5 4 5 5 3 2 2 3 3 3 4 4 5 6 5 5 6 5 5 5 5 4 3 3 3 5 3 2 3 5 6 7 7 6 5 4
11 11 13 15 17 18 19 19 18 17 16 18 17 17 18 20 21 19 19 19 18 17 15 14 13 13 13 11 11 11 9 9 11 11 10 9 9 9 9 9 9 9 8 8 8 7 6 6 5 5 5 5 6 4 3 3 3 3 3 3 3 3 4 5 5 5 5 5 6 6 4 4 3 3 4 4 1 2 4 5 7 7 6 6 7
11 12 15 17 19 20 19 17 18 17 16 17 17 17 19 20 21 21 20 20 19 18 16 14 14 14 14 13 12 12 11 10 10 10 10 9 9 9 8 9 9 9 9 8 8 8 7 7 6 6 6 6 6 5 4 3 4 4 3 2 2 2 2 3 3 3 4 4 5 6 5 4 3 3 5 5 2 1 2 4 6 6 5 7 8
10 12 15 17 18 17 17 17 17 16 15 16 16 17 19 21 22 22 22 21 20 19 17 15 15 16 15 14 13 12 11 11 10 10 11 10 9 9 8 9 9 9 9 9 9 9 8 8 7 6 7 7 7 6 4 4 3 4 3 3 2 1 0 1 2 2 3 3 3 4 4 4 3 4 5 6 4 2 2 3 5 5 4 6 8
11 11 12 13 14 14 15 16 15 15 15 17 17 18 20 22 24 23 23 23 21 20 19 17 17 17 16 14 13 11 10 11 10 11 11 11 9 9 8 8 9 9 9 9 9 9 9 8 7 7 8 7 7 6 6 5 4 4 4 3 2 2 2 2 2 2 2 2 2 2 3 3 3 3 4 4 5 4 3 3 4 5 3 4 8
12 10 9 10 12 14 16 16 15 16 17 18 18 18 20 23 25 25 25 24 23 21 20 19 18 18 16 15 12 11 10 11 11 11 11 11 10 9 8 8 9 9 9 10 9 9 8 8 7 7 7 7 7 7 7 6 5 5 5 4 4 4 4 4 4 4 3 3 3 3 3 3 3 3 3 3 4 3 2 3 4 3 2 4 6
10 10 10 10 13 16 17 17 17 18 18 19 19 19 20 22 25 27 26 26 24 23 22 21 20 19 17 16 14 11 10 10 11 11 11 11 10 9 8 8 8 8 9 10 9 8 8 7 6 7 7 7 7 7 7 6 5 5 5 5 5 5 5 5 5 5 4 4 4 4 4 4 3 3 3 3 3 3 3 4 4 3 2 3 3
8 10 11 13 16 17 17 18 18 19 19 19 18 20 21 22 26 27 26 27 26 24 24 22 22 20 18 17 15 14 11 10 11 11 11 11 10 9 8 7 7 7 8 10 9 8 7 6 6 6 6 6 6 7 7 6 6 6 6 6 6 6 6 6 6 5 5 5 5 5 5 5 4 4 4 4 4 3 3 4 4 4 3 3 3
9 9 11 13 16 16 16 18 18 17 18 19 18 21 23 23 26 28 27 27 27 26 25 24 23 22 20 19 17 16 13 11 11 10 11 11 10 9 8 6 6 6 6 7 8 7 6 5 5 5 5 6 6 7 7 6 6 6 6 7 6 6 7 6 6 5 5 5 5 5 6 6 5 5 5 5 4 3 3 3 3 3 3 3 3
10 9 10 12 14 15 16 16 16 17 18 19 21 23 25 25 26 27 25 26 27 27 26 25 24 23 22 21 19 18 15 12 10 9 9 10 10 9 8 7 7 6 6 6 7 7 6 5 5 4 5 5 6 6 6 6 7 6 7 7 6 6 7 7 6 5 5 5 5 6 6 6 6 5 6 5 4 4 3 3 3 3 2 3 3
9 9 10 12 14 15 16 16 17 18 19 21 22 23 23 25 25 25 26 26 27 26 26 26 25 23 23 22 21 19 17 13 10 9 9 10 10 9 8 8 7 7 7 7 6 6 6 5 5 5 5 5 6 6 6 7 7 7 7 7 7 6 7 7 7 7 6 5 6 6 6 7 6 6 6 5 5 4 4 4 4 3 3 4 4
7 7 7 9 13 15 16 16 16 18 17 18 19 19 20 22 23 23 24 25 25 24 24 25 25 23 22 23 22 20 18 15 12 10 10 10 10 9 8 8 7 7 7 7 6 6 6 5 5 5 5 6 6 7 7 7 7 7 7 7 7 8 8 7 7 7 6 6 7 7 7 7 7 7 7 6 6 6 5 5 5 5 5 5 5
5 6 6 7 10 13 15 16 16 17 17 16 17 18 19 20 21 20 19 20 22 23 25 25 24 23 22 22 22 21 19 16 14 11 10 11 11 10 9 8 7 7 6 6 7 7 6 5 5 5 6 6 6 7 7 7 7 8 8 7 7 8 9 8 8 8 7 8 8 8 8 8 7 7 8 7 7 7 7 6 6 7 7 7 6
5 5 6 7 8 10 12 13 14 15 15 15 17 18 18 18 19 20 19 19 21 23 25 25 24 23 22 21 21 21 19 17 15 14 12 12 12 11 10 9 8 8 7 6 6 7 6 6 6 6 6 6 6 7 8 8 8 9 9 9 9 10 10 9 9 9 9 8 9 9 9 9 9 9 8 8 8 8 7 7 7 7 7 7 6
5 5 6 7 8 9 10 11 12 13 14 16 16 16 17 17 18 19 18 19 21 22 23 24 24 23 22 19 18 19 19 18 16 15 14 13 14 14 12 10 9 9 8 8 7 7 7 6 7 7 7 7 7 7 8 9 9 10 10 9 9 10 10 9 10 10 10 9 9 10 10 9 9 9 9 9 9 8 8 8 8 8 8 8 7
5 5 5 7 7 8 9 10 12 14 16 17 18 17 18 19 21 21 20 21 22 22 21 22 23 22 20 18 17 17 18 17 17 17 16 14 14 15 15 12 10 9 9 9 9 8 8 7 8 8 7 7 8 8 9 9 9 10 10 10 9 9 9 9 9 10 9 9 9 10 10 9 9 9 10 9 9 9 9 9 9 9 10 9 8
5 5 5 7 8 7 8 9 11 13 16 18 20 20 20 21 22 21 21 21 21 21 20 20 21 20 19 18 17 16 15 16 16 16 16 15 13 14 16 15 11 9 9 9 9 9 9 9 9 9 9 9 9 9 10 10 10 10 10 10 10 10 10 10 10 10 9 9 9 10 10 9 9 10 11 10 9 9 9 9 10 10 10 10 9
5 5 6 7 8 8 8 9 11 13 16 20 21 21 21 22 21 20 20 19 18 18 18 17 17 18 18 18 16 14 14 15 16 15 15 15 12 12 14 15 13 10 9 9 10 10 10 10 10 10 11 11 10 10 11 11 11 11 11 11 11 12 12 12 12 12 11 11 11 11 11 10 10 11 11 11 10 11 11 11 11 10 10 10 10
7 6 7 8 8 10 10 10 11 12 14 17 19 19 19 19 19 18 17 15 14 14 13 13 13 13 15 17 16 15 14 14 14 14 13 13 13 12 12 13 14 13 11 10 10 11 12 12 12 12 12 12 11 12 12 12 12 12 12 12 13 13 14 14 14 13 13 13 13 13 12 12 12 12 11 11 11 12 12 11 12 12 11 11 11
7 6 6 7 8 10 12 12 11 10 10 11 12 13 14 17 17 15 11 10 11 12 10 9 9 9 10 13 13 13 13 12 13 13 12 11 10 10 10 11 12 13 13 12 12 12 14 14 14 14 13 12 12 12 13 14 13 14 14 14 14 14 15 15 15 14 13 13 13 13 14 14 14 15 14 13 13 12 12 12 12 13 12 12 12
6 6 7 8 9 9 11 12 11 11 11 11 11 11 12 13 12 10 8 8 10 13 13 10 9 7 8 10 10 11 13 15 15 15 14 11 9 10 11 11 11 11 12 12 12 12 12 13 14 14 13 12 12 12 13 13 14 14 15 15 16 16 16 15 16 16 15 14 15 14 14 15 16 16 16 15 15 15 14 14 14 14 15 15 14
8 6 7 9 9 9 11 12 11 12 14 14 13 11 11 10 10 10 11 9 8 12 14 13 10 7 7 9 10 12 15 16 16 15 14 13 12 12 12 12 12 11 11 11 12 12 11 11 12 13 13 12 13 13 12 12 13 14 15 15 16 17 17 17 17 17 17 17 17 16 15 16 17 17 17 17 17 17 18 18 18 18 17 17 15
8 7 7 8 9 10 12 11 11 13 14 13 12 11 11 11 10 11 12 10 8 11 11 10 10 10 11 11 11 12 15 17 17 16 15 15 15 14 12 13 13 13 13 14 14 15 13 11 12 12 12 12 13 13 13 12 12 13 13 14 15 17 18 19 19 19 19 19 18 18 19 20 21 20 19 19 18 18 18 19 19 19 19 18 16
9 9 8 8 8 9 10 10 11 13 15 14 12 11 11 12 11 11 12 10 10 10 8 8 11 13 15 14 13 14 15 15 15 16 16 16 16 16 15 15 13 13 14 14 14 15 14 13 12 12 12 12 11 12 14 14 13 12 12 11 13 15 16 18 19 19 20 20 18 18 18 19 21 21 21 20 20 19 18 18 18 18 19 19 18
9 10 9 9 10 11 12 13 15 16 16 14 12 11 12 14 15 16 17 13 9 7 7 7 9 11 12 14 14 14 13 12 13 13 13 14 15 17 17 17 15 14 13 12 12 13 14 13 12 12 10 8 8 12 15 15 15 14 12 11 11 11 12 14 15 16 18 19 19 18 16 15 17 20 22 21 21 21 19 18 18 17 17 17 18
9 10 11 12 13 14 14 15 17 20 20 19 18 17 17 18 19 20 21 18 14 12 12 12 9 7 6 8 10 10 9 9 9 10 9 9 10 11 13 14 14 15 13 11 10 11 12 12 10 9 7 4 5 9 11 12 13 13 13 12 11 11 11 12 14 15 16 17 19 20 19 18 17 20 22 22 21 21 20 19 18 18 17 17 17
10 10 12 14 16 17 17 18 20 22 22 24 24 25 24 24 23 23 23 22 21 19 18 15 13 12 10 10 10 9 8 7 7 7 6 6 6 5 6 6 7 8 9 9 9 9 10 10 9 8 6 4 6 9 9 9 10 11 11 12 12 11 11 11 13 15 15 16 18 18 19 20 20 20 21 21 19 19 19 19 19 18 18 19 19
9 9 11 15 17 17 17 21 24 24 24 26 28 29 28 25 24 25 25 23 22 22 20 18 17 15 14 13 13 13 11 10 8 7 8 8 7 6 6 5 4 4 4 5 6 6 6 7 7 7 5 5 9 13 12 12 13 12 11 11 11 11 11 11 12 13 13 15 16 16 17 18 19 19 19 18 17 15 16 17 18 18 18 18 19
11 10 11 14 17 17 17 20 24 26 26 28 30 31 29 27 26 26 26 24 23 22 21 20 19 17 15 13 12 13 13 12 10 8 8 9 9 8 7 6 5 3 2 2 2 2 3 4 4 5 5 5 7 10 12 13 14 14 13 12 11 11 11 12 12 12 13 13 13 14 14 15 16 17 16 15 14 13 14 15 16 17 17 16 18
15 14 15 16 16 19 20 22 24 26 26 28 30 31 31 29 27 26 26 26 24 21 20 20 20 19 17 15 14 12 12 12 10 9 9 10 9 9 9 9 8 8 7 7 6 5 3 3 3 5 6 5 2 2 4 6 8 9 9 9 9 10 10 11 11 12 13 13 13 13 13 14 14 14 14 14 13 12 14 15 15 16 15 16 18
15 16 17 17 17 20 24 26 26 26 26 27 28 28 29 27 24 24 25 25 22 20 19 20 20 19 19 18 17 15 13 11 9 8 9 10 10 9 10 11 12 13 14 13 11 10 8 7 7 7 7 5 5 4 3 3 3 3 3 3 4 6 6 7 7 8 9 10 11 12 13 13 13 12 13 14 13 13 14 15 14 14 14 16 17
15 15 16 18 21 24 25 26 26 25 25 25 25 26 27 26 23 22 23 22 21 20 20 20 19 19 19 19 19 18 15 12 11 11 11 11 12 11 11 12 14 14 14 13 11 11 9 7 7 7 5 4 4 2 2 3 4 3 2 1 1 2 3 4 5 5 6 6 7 8 9 10 10 11 12 13 12 12 13 13 13 12 13 15 14
15 16 17 20 23 23 21 22 24 23 22 22 22 23 25 24 22 22 21 20 20 20 19 18 18 18 18 18 19 19 18 16 16 15 15 14 14 14 14 14 14 14 13 12 12 12 11 9 7 7 6 6 6 4 3 3 3 3 2 2 2 2 3 4 5 6 6 7 7 6 7 8 9 10 10 10 11 11 11 12 11 11 12 14 14
15 16 18 19 21 21 20 20 21 21 20 19 19 20 20 19 19 18 17 16 17 17 16 16 16 16 16 16 17 18 18 18 18 18 17 17 17 17 16 16 15 14 13 11 10 11 11 10 9 8 8 8 7 6 5 4 5 5 4 4 4 4 3 3 4 5 6 6 6 5 6 9 11 11 11 12 12 13 14 14 13 13 15 16 18
15 17 17 18 18 18 19 18 18 17 17 15 17 18 17 16 16 15 13 13 14 14 14 14 14 14 14 14 14 15 15 15 15 16 16 16 16 16 17 17 17 17 16 13 11 9 9 10 10 10 10 9 8 9 9 9 9 9 8 8 7 7 6 5 5 5 5 6 6 5 6 10 12 12 12 12 13 13 14 15 14 15 15 15 16
15 16 16 17 17 15 15 14 13 14 14 13 15 16 15 15 15 14 12 12 12 11 11 12 13 13 13 12 12 12 12 13 12 12 13 13 13 13 14 15 16 16 15 13 12 9 8 9 10 11 11 10 10 11 11 11 11 11 10 9 9 8 7 6 6 5 6 7 7 7 8 9 10 11 11 12 12 12 13 13 12 13 13 12 13
14 14 16 18 17 15 14 13 13 13 13 12 13 15 15 14 14 13 12 12 11 10 10 10 11 11 11 11 11 10 11 11 11 11 11 11 11 11 11 12 12 12 11 11 10 9 9 9 9 10 11 12 11 11 11 11 11 11 11 11 10 9 8 7 7 7 7 8 8 9 9 9 8 9 9 10 10 10 11 11 11 11 11 12 13
13 14 15 17 17 16 15 14 13 13 13 12 12 13 14 14 13 12 11 10 10 10 11 10 10 10 9 9 9 9 9 9 9 9 9 9 9 9 10 10 9 9 9 9 9 9 9 9 9 9 10 11 11 11 11 11 11 11 11 11 10 10 9 8 8 8 8 8 8 8 8 8 8 7 6 6 7 7 7 7 9 10 11 11 11
14 14 15 16 16 16 15 14 13 13 12 12 11 11 13 13 11 10 9 8 9 10 11 10 10 8 7 7 6 7 7 7 7 7 7 7 7 7 8 9 8 8 8 8 8 8 8 8 8 8 8 10 11 12 12 12 11 12 12 11 11 11 10 10 9 9 8 8 7 8 8 8 8 8 8 8 8 8 8 9 11 12 12 11 10
17 17 18 16 14 14 13 13 13 12 11 10 10 9 10 10 9 8 7 7 7 8 9 9 8 7 6 6 5 5 5 5 5 5 6 6 6 6 7 7 7 7 7 7 7 7 6 6 7 7 7 8 10 12 13 13 12 12 12 12 12 12 11 11 11 11 10 9 8 9 9 9 9 9 9 10 11 11 11 12 13 14 14 14 13
20 20 18 15 13 12 12 12 12 12 11 10 10 9 8 7 7 6 6 7 8 8 8 7 6 6 6 5 5 5 4 4 5 5 5 5 5 5 6 7 7 7 6 6 6 6 6 6 5 5 6 6 7 9 11 12 11 11 11 11 11 11 11 12 11 11 11 10 9 10 11 12 12 11 11 11 12 13 14 13 13 14 14 14 15
21 21 19 16 15 13 12 12 12 12 12 12 11 10 9 8 8 7 7 8 9 8 7 6 6 5 5 5 4 4 4 4 5 5 6 7 6 5 6 7 7 7 6 5 5 5 5 5 5 5 5 5 5 7 9 9 10 10 9 9 9 9 10 10 9 10 10 9 8 9 10 11 11 11 11 11 11 12 12 12 12 13 12 12 14
19 19 19 18 18 16 15 15 15 14 13 13 13 12 11 10 10 9 9 9 9 8 7 6 5 5 5 5 5 5 5 5 5 6 7 8 9 8 7 7 7 7 6 6 5 5 5 5 6 6 5 5 5 6 7 7 8 8 8 9 8 8 9 8 8 9 8 7 6 7 7 9 9 9 9 10 10 10 11 11 12 12 11 11 12
20 17 16 17 17 17 17 18 17 15 14 14 13 13 12 11 10 10 9 9 8 7 6 6 5 5 5 5 5 6 6 6 6 6 7 8 8 8 7 6 5 5 5 5 5 5 5 6 7 6 5 5 5 5 5 6 7 7 7 7 7 8 8 8 9 8 6 5 6 6 6 7 8 7 8 9 9 9 10 10 11 11 10 10 11
Wind_Direction
182 177 182 184 187 186 185 183 179 177 177 179 182 184 184 180 178 178 179 182 182 184 185 186 185 179 181 182 176 172 168 166 171 174 175 178 178 173 168 159 148 148 150 147 144 143 145 146 158 166 154 139 121 95 81 79 73 70 64 52 48 43 31 20 10 1 359 1 1 4 4 355 4 358 319 299 300 310 337 9 10 355 2 7 4
182 179 180 182 186 185 185 186 182 180 180 182 184 185 187 187 184 180 179 182 184 188 188 188 192 192 192 187 176 170 169 165 170 178 181 187 188 183 179 171 159 158 158 156 153 146 143 146 157 161 152 143 129 99 80 78 76 72 58 40 39 42 35 22 14 7 6 5 355 1 23 38 51 32 356 321 295 271 274 318 357 354 334 345 360
192 185 179 181 183 182 185 188 189 186 183 185 187 186 187 188 188 188 190 190 186 188 193 198 202 201 203 197 179 171 173 171 172 178 180 185 191 187 184 180 172 167 163 164 163 154 151 150 155 159 158 153 140 109 73 80 86 73 54 42 36 38 41 27 18 11 7 3 348 2 19 22 53 31 14 17 2 294 257 274 307 333 316 346 11
195 188 180 180 180 182 187 187 188 188 185 187 188 187 189 191 193 194 198 200 196 196 201 207 212 208 211 216 195 184 182 179 174 175 178 179 185 187 187 186 180 174 168 168 168 167 171 165 153 158 167 167 158 136 95 99 102 77 55 49 42 37 42 31 18 12 11 10 358 3 355 351 41 14 2 18 27 32 19 298 288 308 322 19 34
193 189 180 177 180 184 186 186 187 189 191 191 190 190 190 193 197 197 198 200 199 200 202 202 206 207 208 205 191 188 187 187 181 179 182 180 182 187 189 189 185 182 177 171 174 182 190 185 165 162 174 175 166 150 113 121 115 87 68 57 47 43 40 29 25 21 23 27 18 360 350 25 30 358 355 25 35 44 45 28 34 24 26 59 50
192 189 181 181 184 183 182 185 189 194 197 195 193 193 192 195 199 198 197 197 197 200 202 201 203 205 204 191 178 181 183 190 190 185 184 182 182 186 189 189 189 191 190 184 185 191 193 191 179 177 188 184 171 157 125 128 124 99 81 63 52 53 47 35 36 33 32 38 33 12 345 346 345 346 354 13 26 41 43 42 50 53 73 76 51
193 191 187 186 185 181 183 189 194 199 197 194 193 191 194 201 203 199 198 197 197 201 204 204 204 203 204 197 188 186 187 195 197 190 188 187 185 186 188 189 190 193 195 197 196 193 194 193 193 194 194 189 177 160 142 138 143 130 99 80 69 64 55 44 39 38 37 39 35 23 360 345 328 351 358 348 4 29 30 37 43 45 61 60 40
194 191 190 190 186 185 190 193 197 200 193 192 196 193 197 205 206 202 200 199 198 203 206 208 208 205 202 201 199 195 192 197 198 195 194 193 190 188 187 188 189 190 193 196 194 189 191 194 197 199 196 192 184 173 175 173 167 157 123 98 85 73 60 50 44 37 37 38 37 39 46 60 74 33 12 3 335 352 18 34 34 39 56 50 35
197 195 193 191 189 191 194 194 196 196 192 194 197 197 200 205 206 203 202 203 202 203 207 211 212 208 205 202 201 200 198 197 195 196 197 196 195 190 185 186 186 188 190 192 193 190 191 194 198 199 195 191 188 189 197 194 188 171 145 119 97 81 59 49 47 40 37 38 40 46 51 53 60 37 18 16 351 341 11 22 20 27 46 44 32
200 200 197 194 194 195 194 192 193 193 193 192 194 198 202 204 206 205 204 205 205 205 207 212 211 208 207 204 200 200 201 199 194 195 199 199 196 190 185 186 185 187 190 190 191 191 191 194 197 195 192 192 193 197 206 207 202 187 170 156 125 97 55 36 33 34 36 38 42 47 47 37 35 29 22 22 22 344 338 360 15 17 27 32 24
199 202 201 197 195 194 190 189 190 191 190 187 189 197 202 205 207 207 206 206 206 206 206 210 209 206 207 206 202 203 204 203 199 200 204 204 200 194 190 190 188 187 189 188 188 189 191 194 194 193 193 194 194 197 205 206 203 199 195 192 183 173 249 338 337 352 12 21 32 40 38 29 29 28 24 21 19 10 336 353 19 14 13 22 20
195 199 199 194 188 184 185 186 185 185 185 187 189 194 199 206 208 207 208 208 208 208 206 206 205 203 205 207 207 208 209 210 209 208 210 208 205 200 196 194 193 191 192 191 190 190 191 192 192 194 195 194 194 196 197 196 198 204 206 209 217 219 237 275 289 296 312 322 339 2 6 5 12 12 15 19 21 21 354 352 17 12 5 17 20
194 193 189 187 184 183 185 182 180 185 188 190 190 190 196 204 208 208 210 210 209 208 207 206 205 205 206 208 211 214 216 220 221 219 218 215 209 205 201 200 199 198 197 197 196 194 194 194 194 195 196 195 193 192 191 194 199 206 211 221 235 237 243 264 273 274 283 292 299 310 316 321 334 348 356 5 15 20 1 357 12 2 351 14 19
191 188 184 186 188 188 187 182 183 189 191 191 190 190 194 200 206 208 211 213 211 209 209 208 208 209 210 213 218 220 223 229 230 228 228 225 218 211 208 207 207 208 207 204 201 199 199 199 197 196 196 195 195 193 192 196 203 211 219 227 242 248 252 262 268 268 275 283 283 284 289 298 307 318 328 334 344 356 358 360 358 340 329 1 19
185 186 187 190 190 188 186 185 188 189 189 191 191 192 195 198 204 207 209 212 212 211 210 211 211 212 214 217 222 225 229 236 237 236 236 235 230 222 218 215 215 219 217 212 207 203 203 202 202 200 198 197 199 199 199 206 214 222 228 234 245 253 257 264 265 266 273 276 274 271 273 279 292 302 306 313 324 333 343 353 350 339 328 336 352
182 187 189 191 190 188 188 188 189 187 186 189 191 195 197 199 204 207 208 211 212 212 212 213 214 216 217 219 222 225 229 236 240 240 239 239 238 234 231 227 225 230 228 220 215 212 210 209 212 214 211 208 207 206 209 217 223 229 236 242 249 254 260 264 261 265 273 273 268 264 264 269 279 291 296 301 307 317 328 332 330 334 331 331 334
181 187 187 186 185 187 191 191 188 186 187 191 195 198 200 201 204 205 206 209 211 212 213 214 217 218 219 221 222 223 227 232 237 237 237 239 240 238 236 237 237 239 239 231 223 220 220 221 226 227 223 221 221 221 223 227 231 236 244 249 253 259 266 266 262 265 271 271 269 267 266 269 273 280 289 294 292 298 315 318 310 304 297 309 317
181 186 185 183 184 187 191 193 193 191 191 195 197 198 200 203 205 204 206 209 211 212 213 215 218 220 221 222 221 222 225 228 230 233 235 235 234 233 233 240 246 246 243 239 231 226 227 234 241 242 238 233 232 233 235 238 240 244 251 256 259 264 271 272 269 269 272 274 275 273 273 274 275 277 280 284 283 284 295 306 305 298 285 283 291
173 180 182 185 189 191 192 193 195 193 193 195 195 194 197 203 206 206 208 211 211 211 214 218 220 221 223 223 222 221 223 226 227 230 234 230 228 229 235 245 252 250 243 237 233 232 236 242 247 250 250 247 244 243 242 244 246 251 257 259 261 267 274 278 277 277 278 279 279 279 277 279 281 279 277 279 281 281 285 292 296 302 299 287 281
156 165 171 183 192 195 196 196 196 196 195 195 193 192 195 201 205 205 205 208 209 212 216 220 221 222 225 225 223 221 222 225 226 229 233 232 231 234 239 246 252 252 245 235 233 236 242 246 245 244 247 252 254 250 249 252 254 257 260 259 261 268 274 279 281 282 284 284 284 282 280 282 285 284 279 278 279 279 280 285 290 296 298 291 281
144 152 164 174 184 192 197 198 195 194 195 196 196 194 193 197 203 205 204 205 208 212 217 220 221 223 227 226 223 222 223 225 227 230 234 236 239 241 243 247 249 250 249 243 239 240 245 246 245 244 249 257 259 255 255 259 262 265 268 268 267 272 276 277 279 282 283 283 283 282 281 283 287 288 284 278 278 280 278 279 287 293 296 294 285
152 158 163 167 175 185 192 193 190 189 193 197 198 193 190 194 201 205 204 206 210 212 215 218 219 223 226 225 223 223 225 227 228 231 234 237 242 245 247 250 253 251 251 250 247 246 248 248 247 250 253 256 259 260 263 269 271 273 272 269 268 272 276 278 279 280 281 282 283 283 283 285 286 289 290 283 279 281 283 284 289 295 300 300 294
167 165 156 153 162 173 181 183 185 188 193 198 199 195 192 198 205 207 207 211 214 214 215 218 220 222 225 225 225 226 228 229 229 232 235 237 241 246 248 251 252 251 254 254 251 250 253 254 253 256 256 254 256 258 263 272 276 276 273 267 266 269 271 273 275 278 279 280 281 282 283 284 284 288 292 290 285 284 286 289 291 294 297 300 300
176 162 147 148 155 161 170 175 178 186 194 200 202 200 199 203 208 209 209 214 217 217 218 220 221 223 224 225 227 226 227 228 229 233 237 238 240 244 249 251 249 247 249 252 252 253 257 259 259 261 262 261 261 260 262 266 271 273 272 271 271 273 273 272 274 277 278 278 278 280 283 283 284 287 290 291 289 288 289 291 293 294 295 295 296
164 156 156 160 160 159 163 170 176 183 192 199 202 201 201 204 209 211 211 215 218 217 218 220 223 225 227 229 228 224 224 228 230 233 239 243 243 242 246 248 246 243 243 246 248 251 256 258 261 265 267 267 267 266 265 266 268 272 274 273 273 276 277 277 278 279 280 279 278 277 281 283 283 285 288 289 289 291 294 294 296 298 298 298 297
162 162 165 165 167 165 166 176 182 182 185 192 196 196 195 198 205 210 209 209 213 216 216 216 220 225 231 235 234 229 227 229 231 233 237 242 242 241 243 244 244 245 245 245 246 248 254 258 261 266 270 270 270 270 271 271 270 271 274 276 275 276 278 279 279 280 279 279 278 278 281 283 283 283 284 287 290 293 294 292 294 300 301 301 299
155 155 156 160 170 170 171 179 179 172 169 172 176 177 179 187 194 197 192 186 194 202 200 200 208 218 228 234 234 231 229 227 230 234 235 236 238 237 238 238 239 243 245 246 247 249 255 260 262 264 266 268 271 274 276 277 274 272 274 277 277 276 277 278 279 279 277 275 274 277 280 281 283 285 285 286 289 291 292 291 292 297 300 300 300
132 147 164 166 169 169 171 173 166 157 153 153 157 159 161 168 170 165 159 155 173 189 191 189 193 203 216 223 224 225 229 233 237 241 239 235 234 235 237 238 238 240 243 245 247 248 252 256 257 259 261 263 270 277 280 281 279 277 276 277 279 279 278 278 280 281 279 278 277 276 276 277 282 287 288 288 287 287 289 290 292 296 299 299 298
125 144 166 169 171 169 169 167 154 144 141 143 149 148 141 137 127 126 131 130 157 192 203 203 198 196 209 220 221 222 228 232 233 236 236 236 238 239 240 240 239 239 241 242 246 248 250 250 251 256 258 259 266 273 278 283 285 283 281 279 281 284 282 280 283 284 282 283 284 281 277 279 285 290 291 290 289 289 290 289 290 294 296 297 295
131 136 141 153 164 165 165 164 151 140 135 133 134 133 125 118 110 117 129 139 175 201 207 204 202 206 213 217 218 221 225 226 225 226 228 231 234 234 234 237 238 239 240 244 249 251 250 250 249 251 251 251 257 264 269 277 281 282 281 278 280 286 288 286 285 286 286 286 285 284 285 289 293 293 292 292 293 294 293 291 290 291 290 291 290
132 130 125 125 130 131 135 136 132 129 125 118 117 115 110 105 101 112 132 159 199 209 199 194 205 216 219 219 222 226 229 229 228 228 229 231 234 235 235 237 238 238 239 243 247 248 247 247 247 248 247 244 245 252 258 264 269 271 272 272 274 281 286 287 285 284 285 286 285 285 288 293 297 298 298 298 298 298 297 296 295 293 290 288 284
133 129 122 115 108 103 104 107 110 112 110 108 109 104 97 95 97 108 126 146 171 172 147 151 183 208 218 221 223 228 233 235 233 232 233 233 235 237 238 239 239 239 240 238 239 242 243 242 243 245 247 245 241 247 254 259 263 267 269 268 266 266 269 275 278 279 282 286 287 287 287 287 291 296 300 302 302 302 303 302 299 296 292 287 283
126 119 114 108 101 95 90 90 96 100 103 106 106 98 91 93 98 106 116 122 121 115 112 115 129 152 177 193 199 204 209 216 221 224 223 221 223 229 233 236 238 239 238 236 237 239 239 237 237 238 239 242 245 252 258 261 263 268 271 271 271 269 264 264 269 273 278 283 287 290 291 290 289 294 300 303 304 305 306 307 304 301 297 294 290
112 107 107 103 98 93 86 85 90 95 100 104 102 98 96 98 102 103 105 107 107 106 106 106 110 113 115 125 138 144 143 149 163 172 171 172 180 190 202 212 224 230 231 232 234 237 240 240 242 246 249 251 254 258 263 263 262 266 271 275 276 276 274 271 272 275 277 279 284 287 289 291 292 294 299 302 303 303 304 305 303 299 297 296 296
105 102 104 103 102 100 96 96 98 99 101 102 101 101 101 100 101 101 100 100 100 98 97 97 101 105 109 113 119 121 118 114 118 125 128 134 141 147 160 173 186 201 215 225 225 229 236 237 238 242 245 250 257 262 264 264 264 264 266 273 277 276 276 276 277 279 279 280 281 282 283 287 290 292 294 297 299 298 296 295 294 292 290 291 292
118 112 105 105 108 109 107 106 105 104 104 103 103 105 104 100 100 100 99 99 97 93 93 95 97 101 105 109 114 118 118 116 115 113 114 116 117 118 125 134 142 157 181 208 213 216 224 225 224 219 210 220 252 267 268 265 264 263 263 268 273 274 273 271 270 273 276 277 278 279 280 283 285 288 291 292 292 289 285 284 283 285 286 285 285
122 118 112 111 115 117 117 114 111 109 107 105 106 107 106 103 102 100 98 97 95 92 92 92 91 93 96 98 101 103 106 112 116 115 115 116 112 109 110 112 110 107 106 107 103 105 124 140 142 153 165 170 152 355 305 279 272 266 261 263 269 272 272 269 268 269 270 272 273 274 277 279 282 285 286 285 282 277 276 276 275 279 281 279 282
117 119 118 117 116 117 118 117 114 111 109 108 108 108 105 102 99 98 96 93 91 89 89 87 85 85 86 88 91 94 97 101 105 106 109 110 108 107 109 110 107 102 99 98 98 100 104 102 102 116 131 128 101 68 19 360 351 313 272 261 267 274 275 272 273 274 273 273 273 272 272 271 273 275 275 276 275 271 271 273 274 277 278 279 283
112 116 118 117 117 117 116 114 111 108 108 108 108 106 103 98 94 95 93 89 89 91 92 90 87 87 89 88 87 91 96 100 101 102 104 104 102 102 103 101 99 96 94 93 95 99 100 95 90 101 111 104 93 70 354 2 8 5 24 38 350 330 316 303 298 292 285 283 280 278 276 271 268 272 275 276 276 274 274 276 276 276 276 279 286
113 114 114 116 118 116 110 109 109 108 109 109 107 103 100 96 94 91 87 86 89 93 95 95 92 91 92 90 87 88 92 99 103 104 104 104 102 100 98 95 93 91 88 90 94 95 96 96 94 92 85 73 70 60 22 353 339 341 21 59 63 45 6 336 324 314 304 295 287 287 294 290 283 283 285 285 284 284 284 285 283 280 279 284 292
115 116 115 114 114 111 106 105 108 110 110 109 107 102 96 92 91 86 81 85 92 95 96 97 95 93 91 90 89 88 90 95 100 102 100 97 95 95 95 97 99 99 95 96 98 96 96 99 101 100 92 81 74 66 51 33 15 7 13 33 46 46 32 14 356 343 332 320 310 307 303 294 289 290 291 290 290 289 288 285 282 280 283 289 296
114 114 113 110 106 104 102 102 106 110 110 109 109 104 96 92 89 84 85 91 94 95 96 95 94 94 93 92 92 91 91 91 93 96 95 92 90 91 94 99 105 108 108 107 106 100 96 92 90 92 92 87 77 65 53 43 37 30 21 20 28 29 19 12 5 354 342 333 331 322 294 283 284 288 290 290 290 290 288 283 278 278 284 291 296
115 115 115 111 104 98 97 99 106 112 111 112 113 108 101 97 94 92 96 98 96 98 100 98 97 96 97 99 98 97 95 91 88 88 88 87 86 87 91 99 105 107 106 103 99 96 89 79 72 69 67 64 60 53 44 40 40 38 33 31 35 37 29 20 14 1 346 338 335 327 310 297 291 287 284 282 282 282 283 283 281 280 283 288 292
118 117 118 115 110 104 101 102 108 115 116 116 114 111 106 103 101 102 101 98 97 101 102 101 102 101 101 104 107 110 108 100 92 88 86 85 86 86 89 95 98 99 97 91 85 79 72 65 59 54 51 50 49 46 40 35 35 35 34 36 38 41 40 35 29 18 5 355 348 341 336 331 320 307 299 294 292 293 293 293 293 292 292 295 298
122 122 123 120 116 114 110 106 107 112 115 113 113 111 108 107 109 108 103 99 98 99 98 98 99 101 101 102 107 115 119 115 105 96 91 90 88 88 91 93 91 89 86 80 73 69 65 61 56 51 46 45 47 48 43 38 36 35 34 33 34 37 37 35 32 25 12 6 4 3 3 5 7 5 360 353 350 351 349 342 336 332 323 313 307
127 129 129 126 122 120 117 113 111 112 112 112 113 112 108 108 111 108 102 99 97 95 94 92 90 92 93 95 99 104 112 120 117 106 99 96 90 87 89 90 86 82 78 73 69 64 62 61 60 58 53 50 52 54 52 50 48 47 45 42 40 40 39 37 37 30 18 12 14 14 16 22 28 30 27 20 14 13 16 16 11 4 353 339 328
137 140 139 136 131 127 125 123 120 118 116 115 118 118 115 116 117 109 103 101 98 95 91 85 81 79 78 79 84 87 94 108 116 115 111 103 93 87 86 82 77 75 72 70 68 66 64 65 68 69 67 60 56 54 54 55 54 52 50 47 43 41 39 38 36 29 22 18 13 9 10 13 15 14 13 11 6 2 3 4 1 357 354 350 345
143 147 150 146 140 136 136 133 127 124 123 122 122 125 129 135 134 127 123 118 111 103 93 82 76 75 73 72 77 81 85 95 104 114 118 109 97 89 84 79 74 69 67 69 71 69 67 69 78 83 77 69 61 53 50 50 49 47 45 42 38 33 30 32 31 23 18 19 15 10 12 12 11 10 8 6 4 1 1 1 354 349 349 345 339
148 155 159 157 150 146 143 138 135 134 133 131 130 131 134 140 143 142 138 130 121 112 101 91 84 80 79 80 85 90 97 106 113 117 113 106 104 103 96 90 84 78 76 79 83 83 79 81 89 91 81 71 63 52 46 45 43 40 38 37 35 32 28 28 22 11 9 13 13 12 13 12 9 8 4 1 359 356 356 356 353 352 353 348 343
153 159 163 164 162 159 156 151 149 149 145 140 138 138 137 136 139 141 138 130 123 117 110 105 100 95 93 94 98 103 105 113 127 132 119 107 102 101 100 98 91 84 81 84 91 98 101 103 104 99 92 86 73 56 45 41 40 36 32 29 28 27 25 21 14 8 9 15 14 11 13 11 6 4 1 357 354 351 349 348 348 351 353 349 347
160 166 169 166 163 165 165 162 161 159 154 148 145 143 142 140 139 140 138 133 130 128 125 123 120 118 117 114 113 113 114 116 123 132 133 126 115 104 97 92 88 92 98 102 108 111 115 123 125 114 98 84 72 57 43 39 37 33 27 23 19 18 17 14 13 15 21 26 19 14 15 11 5 4 3 358 353 351 349 345 344 345 348 347 346